Regional Weather Roundup
Issued by NWS

Home | Current Version | Previous Version | Graphics & Text | Print | Product List | Glossary On
Versions: 1 2 3 4 5 6 7 8 9 10 11 12 13 14 15 16 17 18 19 20 21 22 23 24 25 26 27 28 29 30 31 32 33 34 35 36 37 38 39 40 41 42 43 44 45 46 47 48 49 50
000
ASUS43 KDTX 202101
RWRMI
MICHIGAN HOURLY REGIONAL WEATHER ROUNDUP
NATIONAL WEATHER SERVICE DETROIT/PONTIAC MI
400 PM EST MON FEB 20 2017

NOTE: "FAIR" INDICATES FEW OR NO CLOUDS BELOW 12,000 FEET WITH NO
SIGNIFICANT WEATHER AND/OR OBSTRUCTION TO VISIBILITY.

MIZ047>049-052>055-059>063-066>070-074>076-081>083-202200-
SOUTHEAST LOWER MICHIGAN

CITY           SKY/WX    TMP DP  RH WIND       PRES   REMARKS
ADRIAN         CLOUDY    51  35  54 E15       30.20F
ALMA           MOSUNNY   55  33  42 E9G16     30.17F
ANN ARBOR      MOSUNNY   54  34  46 E9        30.21S
BAD AXE        MOSUNNY   43  34  70 SE6       30.24F
CARO           CLOUDY    53  33  47 SE10G16   30.20F
DETROIT CITY   MOSUNNY   47  34  60 E10       30.25F
DETROIT        CLOUDY    52  34  50 E8        30.23F
FLINT          CLOUDY    53  33  46 SE14      30.20S
GROSSE ILE     CLOUDY    50  33  51 E9        30.22F
HILLSDALE      CLOUDY    54  34  47 SE15      30.16S
HOWELL         CLOUDY    56  31  38 SE7       30.19R

CITY           SKY/WX    TMP DP  RH WIND       PRES   REMARKS
JACKSON        CLOUDY    56  34  43 SE13      30.17F
LAMBERTVILLE   MOSUNNY   46  32  57 E8        30.21F
LANSING        CLOUDY    58  34  40 SE12      30.17S
LAPEER         FAIR      51  32  48 SE9G16    30.23R
MASON          CLOUDY    55  37  51 SE8G16    30.17F
MONROE         CLOUDY    46  34  61 E9G20     30.22F
MT. CLEMENS    MOSUNNY   46  36  68 SE8       30.24F
PONTIAC        CLOUDY    49  33  54 E12       30.21S
PORT HOPE        N/A     35  32  88 SE9       30.25F WCI  28
PORT HURON     MOSUNNY   48  36  61 SE9       30.25F
TRI CITIES     MOSUNNY   47  39  74 NE12      30.20F
MIDLAND        FAIR      47  34  59 E8        30.20S
TROY           MOSUNNY   48  30  49 SE8       30.26S
SAGINAW HB     MOSUNNY   55  32  41 E9        30.19F
$$
MIZ043>046-050>051-056>058-064>065-071>073-077>080-202200-
SOUTHWEST LOWER MICHIGAN

CITY           SKY/WX    TMP DP  RH WIND       PRES   REMARKS
BATTLE CREEK   CLOUDY    60  35  39 SE12      30.14S
BENTON HARBOR  CLOUDY    65  42  43 SE17      30.06F
BIG RAPIDS     CLOUDY    52  34  50 SE14      30.13F
COLDWATER      MOSUNNY   58  35  43 E9G16     30.14S
FREMONT        FAIR      56  33  42 E12G17    30.10F
HOLLAND        CLOUDY    63  36  36 SE13      30.09S
GRAND RAPIDS   CLOUDY    60  35  39 SE18      30.11F
IONIA          FAIR      58  34  40 SE15      30.13F
KALAMAZOO      MOSUNNY   62  33  33 SE12      30.13S
LUDINGTON      CLOUDY    58  35  42 SE13G18   30.07S
MARSHALL       MOSUNNY   59  35  40 SE13      30.14F
MOUNT PLEASANT CLOUDY    52  34  50 E7        30.17F
MUSKEGON       CLOUDY    62  37  39 E17       30.08F
SOUTH HAVEN    MOSUNNY   65  41  41 SE12G18   30.08F
$$
MIZ016>042-202200-
NORTHERN LOWER MICHIGAN

CITY           SKY/WX    TMP DP  RH WIND       PRES   REMARKS
ALPENA         MOSUNNY   37  28  70 SE15      30.25F WCI  28
BEAVER ISLAND  CLOUDY    39  32  76 E12       30.11F WCI  32
BELLAIRE       PTSUNNY   50  33  51 SE6       30.14S
CADILLAC       CLOUDY    47  32  56 SE12      30.11F
CHARLEVOIX     CLOUDY    50  32  49 E8        30.15F
FRANKFORT      CLOUDY    55  34  45 SE15G22   30.07F
GAYLORD        CLOUDY    47  29  49 SE12      30.14F
GRAYLING       CLOUDY    45  32  60 SE13      30.17S
HARBOR SPRINGS PTSUNNY   46  31  55 E7        30.14F
HOUGHTON LAKE  CLOUDY    47  29  49 SE13G23   30.18S
MANISTEE       CLOUDY    53  33  46 SE13      30.08S
OSCODA         CLOUDY    37  30  75 E8        30.26F WCI  31
PELLSTON       MOSUNNY   44  29  55 E15       30.15F
ROGERS CITY    MOSUNNY   39  29  66 SE12      30.25S WCI  32
TRAVERSE CITY  CLOUDY    52  31  44 SE8       30.10F
$$
MIZ007>008-015-202200-
EASTERN UPPER MICHIGAN

CITY           SKY/WX    TMP DP  RH WIND       PRES   REMARKS
KINROSS        MOSUNNY   36  26  67 SE20G31   30.19F WCI  25
MACKINAC ISLAN CLOUDY    34  30  84 E23G33    30.17F WCI  22
NEWBERRY       MOSUNNY   38  29  70 E15       30.12F WCI  30
S. S. MARIE    MOSUNNY   36  26  67 E12G22    30.21F WCI  28
MUNISING         N/A     44  30  57 S15G26    30.02F
$$
MIZ004>006-011>014-085-202200-
CENTRAL UPPER MICHIGAN

CITY           SKY/WX    TMP DP  RH WIND       PRES   REMARKS
MANISTIQUE     CLOUDY    37  32  84 E17G24    30.09F WCI  27
ESCANABA       CLOUDY    41  32  70 E13       30.06F
MENOMINEE      CLOUDY    46  33  60 SE7       30.02F
SAWYER-GWINN   SUNNY     41  30  65 S18G24    30.00F
$$
MIZ001>003-009>011-084-202200-
WESTERN UPPER MICHIGAN

CITY           SKY/WX    TMP DP  RH WIND       PRES   REMARKS
IRON MOUNTAIN  CLOUDY    44  30  57 SE12      29.95F
HOUGHTON       CLOUDY    41  30  65 E14       29.86F
COPPER HARBOR    N/A     41  31  67 S24G35    29.89F
IRONWOOD       LGT RAIN  50  40  68 SE14G24   29.74F
$$

ABBREVIATIONS USED IN REMARKS
   TC - TEMPERATURE IN CELSIUS
  WCI - WIND CHILL INDEX
   HX - HEAT INDEX
  VSB - VISIBILITY




USA.gov is the U.S. government's official web portal to all federal, state and local government web resources and services.